Location: Bijele Vode
(45.2833°N, 16.2000°E)
Time: 12:08:10
(UTC+00:00)

Cosmos 1844 Rocket - Visible Passes

Search period start: 16 January 2021 00:00
Search period end: 26 January 2021 00:00
Orbit: 824 x 845 km, 71.0° (Epoch: 15 January)

Date Brightness Start Highest point End Pass type
(mag) Time Alt. Az. Time Alt. Az. Time Alt. Az.
16 Jan 4.4 02:50:12 28° ENE 02:50:12 28° ENE 02:54:08 10° ESE visible
16 Jan 2.8 04:31:55 39° WNW 04:33:24 49° WSW 04:38:43 10° S visible
16 Jan 3.2 17:36:25 10° S 17:41:14 36° ESE 17:41:14 36° ESE visible
16 Jan 4.5 19:20:07 10° WSW 19:22:58 26° WSW 19:22:58 26° WSW visible
17 Jan 4.8 02:34:15 21° E 02:34:15 21° E 02:36:44 10° ESE visible
17 Jan 2.7 04:15:58 53° W 04:16:12 53° WSW 04:21:35 10° S visible
17 Jan 3.3 17:19:21 10° SSE 17:24:21 33° ESE 17:25:29 30° E visible
17 Jan 3.9 19:02:46 10° SW 19:07:13 39° W 19:07:13 39° W visible
18 Jan 5.3 02:18:23 14° E 02:18:23 14° E 02:19:19 10° ESE visible
18 Jan 3.0 04:00:07 49° SSW 04:00:07 49° SSW 04:04:26 10° S visible
18 Jan 3.5 17:02:18 10° SSE 17:07:10 30° ESE 17:09:39 22° ENE visible
18 Jan 3.6 18:45:27 10° SW 18:50:51 45° WNW 18:51:22 44° NW visible
19 Jan 3.8 03:44:20 32° S 03:44:20 32° S 03:47:16 10° S visible
19 Jan 3.6 16:45:16 10° SSE 16:49:59 28° ESE 16:53:43 14° NE visible
19 Jan 3.5 18:28:08 10° SW 18:33:36 48° WNW 18:35:27 36° N visible
20 Jan 4.6 03:28:37 19° SSE 03:28:37 19° SSE 03:30:05 10° SSE visible
20 Jan 3.7 16:28:16 10° SSE 16:32:48 25° ESE 16:37:22 10° NE visible
20 Jan 3.3 18:10:49 10° SW 18:16:21 53° WNW 18:19:24 26° N visible
20 Jan 5.4 19:59:31 10° WNW 20:01:07 12° NW 20:01:07 12° NW visible
21 Jan 3.9 16:11:17 10° SSE 16:15:38 23° ESE 16:20:00 10° NE visible
21 Jan 3.2 17:53:31 10° SW 17:59:06 57° WNW 18:03:17 18° NNE visible
21 Jan 5.3 19:41:48 10° WNW 19:44:17 13° NW 19:44:59 13° NNW visible
22 Jan 3.1 17:36:14 10° SW 17:41:51 62° WNW 17:47:03 12° NNE visible
22 Jan 5.2 19:24:10 10° WNW 19:26:57 14° NW 19:28:45 12° NNW visible
23 Jan 3.0 17:18:58 10° SW 17:24:36 68° WNW 17:30:16 10° NNE visible
23 Jan 5.2 19:06:33 10° WNW 19:09:37 15° NW 19:12:26 11° N visible
24 Jan 2.9 17:01:43 10° SSW 17:07:22 74° WNW 17:13:03 10° NNE visible
24 Jan 5.2 18:48:58 10° WNW 18:52:18 16° NW 18:55:37 10° N visible
25 Jan 2.8 16:44:28 10° SSW 16:50:08 80° WNW 16:55:50 10° NNE visible
25 Jan 5.1 18:31:25 10° W 18:34:59 17° NW 18:38:32 10° N visible
